User: anonymous   Login
Location: Columbus
(35.2256°N, 82.1549°W)
Time: 11:20:06
(UTC-05:00)
Language:

ISS - Orbit

View from above orbital plane
View from above orbital plane
View from above satellite
View from above satellite

Ground track
Ground track

The orbit data is extracted from the following two-line orbital elements,

1 25544U 98067A   22028.21808647  .00007418  00000-0  13935-3 0  9994
2 25544  51.6438 309.7475 0006790  70.1663  84.4979 15.49675244323476
Epoch (UTC): 28 January 2022 05:14:02
Eccentricity: 0.0006790
inclination: 51.6438°
perigee height: 413 km
apogee height: 422 km
right ascension of ascending node: 309.7475°
argument of perigee: 70.1663°
revolutions per day: 15.49675244
mean anomaly at epoch: 84.4979°
orbit number at epoch: 32347

The dashed part of the orbit path shows where the satellite is in the earth's shadow,  

DLR